Regional Weather Roundup
Issued by NWS

Home | Current Version | Previous Version | Text Only | Print | Product List | Glossary On
Versions: 1 2 3 4 5 6 7 8 9 10 11 12 13 14 15 16 17 18 19 20 21 22 23 24 25 26 27 28 29 30 31 32 33 34 35 36 37 38 39 40 41 42 43 44 45 46 47 48 49 50
658
ASUS44 KBMX 230010
RWRAL

ALABAMA REGIONAL WEATHER ROUNDUP
NATIONAL WEATHER SERVICE BIRMINGHAM AL
700 PM CDT MON MAY 22 2017

NOTE: "FAIR" INDICATES FEW OR NO CLOUDS BELOW 12,000 FEET
WITH NO SIGNIFICANT WEATHER AND/OR OBSTRUCTIONS TO VISIBILITY.

THE REMARK "TC" DENOTES TEMPERATURE IN DEGREES CELSIUS.

ALZ001>011-014-016>018-020-230100-
NORTH ALABAMA

CITY           SKY/WX    TMP DP  RH WIND       PRES   REMARKS
MUSCLE SHOALS  CLOUDY    73  59  61 E3        29.95F
6HR MIN TEMP:  73; 6HR MAX TEMP:  79;

HUNTSVILLE     CLOUDY    74  63  68 N3        29.94F
6HR MIN TEMP:  74; 6HR MAX TEMP:  79;

DECATUR        CLOUDY    73  62  68 NE3       29.95F
6HR MIN TEMP:  73; 6HR MAX TEMP:  79;

HALEYVILLE     LGT RAIN  69  66  90 CALM      29.97F
6HR MIN TEMP:  69; 6HR MAX TEMP:  76; 6HR PCP: TRACE;

GADSDEN        CLOUDY    71  70  96 CALM      29.96S
6HR MIN TEMP:  70; 6HR MAX TEMP:  78; 6HR PCP:  0.26;

$$

ALZ012-013-022-023-030>036-040>044-230100-
WEST CENTRAL ALABAMA

CITY           SKY/WX    TMP DP  RH WIND       PRES   REMARKS
TUSCALOOSA     LGT RAIN  71  70  96 CALM      29.94S FOG
6HR MIN TEMP:  70; 6HR MAX TEMP:  81; 6HR PCP:  0.24;

$$

ALZ015-024>027-033>036-040>044-230100-
CENTRAL ALABAMA

CITY           SKY/WX    TMP DP  RH WIND       PRES   REMARKS
BIRMINGHAM     CLOUDY    73  70  90 CALM      29.97S
6HR MIN TEMP:  73; 6HR MAX TEMP:  77; 6HR PCP:  0.24;

MONTGOMERY     CLOUDY    75  70  84 NW3       29.92F
6HR MIN TEMP:  75; 6HR MAX TEMP:  84; 6HR PCP:  0.23;

SHELBY CO ARPT LGT RAIN  71  70  96 CALM      29.95S FOG
6HR MIN TEMP:  71; 6HR MAX TEMP:  80; 6HR PCP:  0.63;

MAXWELL AFB    CLOUDY    75  71  89 CALM      29.92S
6HR MIN TEMP:  73; 6HR MAX TEMP:  80; 6HR PCP:  0.10;

GREENVILLE     MOCLDY    79  69  71 NW6       29.93R
6HR MIN TEMP:  79; 6HR MAX TEMP:  84;

$$

ALZ019-021-028-029-037-038-045>048-230100-
EAST CENTRAL ALABAMA

CITY           SKY/WX    TMP DP  RH WIND       PRES   REMARKS
ANNISTON       LGT RAIN  71  69  93 CALM      29.95S
6HR MIN TEMP:  71; 6HR MAX TEMP:  76; 6HR PCP:  0.02;

ALEXANDER CITY CLOUDY    74  72  94 CALM      29.95S
6HR MIN TEMP:  73; 6HR MAX TEMP:  78; 6HR PCP:  0.01;

AUBURN         CLOUDY    72  69  90 CALM      29.96S
6HR MIN TEMP:  70; 6HR MAX TEMP:  78; 6HR PCP: TRACE;

$$

ALZ051>064-230100-
SOUTHWEST ALABAMA

CITY           SKY/WX    TMP DP  RH WIND       PRES   REMARKS
MOBILE         CLOUDY    74  70  87 W3        29.94F
6HR MIN TEMP:  74; 6HR MAX TEMP:  81; 6HR PCP:  0.02;

BROOKLEY FIELD CLOUDY    75  73  93 SW3       29.94F
6HR MIN TEMP:  75; 6HR MAX TEMP:  81; 6HR PCP:  0.01;

EVERGREEN      LGT RAIN  77  68  73 CALM      29.94S
6HR MIN TEMP:  77; 6HR MAX TEMP:  85; 6HR PCP: TRACE;

$$

ALZ049-050-065>069-230100-
SOUTHEAST ALABAMA

CITY           SKY/WX    TMP DP  RH WIND       PRES   REMARKS
DOTHAN         MOCLDY    80  72  76 SW7       29.95F
6HR MIN TEMP:  79; 6HR MAX TEMP:  86;

OZARK          MOCLDY    79  71  75 SW5       29.92S
6HR MIN TEMP:  79; 6HR MAX TEMP:  86; 6HR PCP: TRACE;

TROY           CLOUDY    78  70  76 SW3       29.94R
6HR MIN TEMP:  78; 6HR MAX TEMP:  85;

EUFAULA        HVY RAIN  71  69  93 NW5       29.93R VSB 1/2
6HR MIN TEMP:  71; 6HR MAX TEMP:  87; 6HR PCP:  0.85;

$$




USA.gov is the U.S. government's official web portal to all federal, state and local government web resources and services.